"Pseudo-MPEC" for P10U8zp

Created 2019 Nov 13 9:07:12 UT using Find_Orb

Click here for an explanation of pseudo-MPECs

 
 Astrometry: 
     P10U8zp  C2019 11 04u_(VG#[*P,AstrometryYR3cdredacted;Xqhj#VVXs:a74%U0e7F51
     P10U8zp  C2019 11 04@2:VjclickbO.nbL3@C!d1uY*itA$TQhereh?h.+)d!MQ6O9bb4+F51
     P10U8zp  C2019 11 04cR`NM?X=mTuG+cfforMqK06M^$tkq\-_AJ8'xeW\nexplanationF51
     P10U8zp KC2019 11 05.09052401 54 19.34 +21 36 24.4    ~B52q 22.1 GVNEOCPH01
     P10U8zp  C2019 11 05.09803801 54 19.65 +21 36 25.2    ~B52q 22.5 GVNEOCPH01
     P10U8zp  C2019 11 05.10318901 54 19.89 +21 36 25.3    ~B52q 21.8 GVNEOCPH01
     P10U8zp  C2019 11 05.10909301 54 20.12 +21 36 25.5    ~B52q 22.1 GVNEOCPH01

Station data:
(F51) Pan-STARRS 1, Haleakala  (N20.707235 W156.255910)  US/Hawaii.
   Observers N. Primak, A. Schultz, S. Watters, J. Thiel, T. Goggia. Measurer
   PS1 Science Consortium. 1.8-m Ritchey-Chrétien + CCD.
(H01) Magdalena Ridge Observatory, Socorro  (N33.984833 W107.189333)  US/New
   Mexico.  Observers W. H. Ryan, E. V. Ryan. Measurer W. H. Ryan. 2.4-m
   f/8.9 reflector + CCD.

Orbital elements:  P10U8zp
   Perihelion 2019 Nov 1.389871 +/- 38.1 TT =  9:21:24 (JD 2458788.889871)
Epoch 2019 Nov  5.0 TT = JDT 2458792.5   Earth MOID: 0.2790   Ma: 0.0444
M   1.14296787 +/- 8                (J2000 ecliptic)          AutoNEOCP
n   0.31660027 +/- 0.116            Peri.  102.90099 +/- 80
a   2.13203922 +/- 0.517            Node   294.42236 +/- 41
e   0.4047041 +/- 0.148             Incl.    2.13733 +/- 0.8
P   3.11                   H 24.0   G  0.15   U 11.3  SR
q 1.26919407 +/- 0.169    Q 2.99488436 +/- 2.98
From 7 observations 2019 Nov. 4-5 (15.5 hr); mean residual 0".13
Residuals in arcseconds: 
191104 F51  .20-  .01-    191105 H01  .01-  .22-    191105 H01  .05-  .04-    
191104 F51  .06+  .08-    191105 H01  .14-  .20+    
191104 F51  .15+  .10+    191105 H01  .18+  .05+    

Ephemerides (geocentric):
Date (UTC) HH   RA              Dec         delta   r     elong  mag " sig PA
---- -- -- --  -------------   -----------  ------ ------ -----  --- ---- ---
2019 11 13 09  02 01 48.039   +21 30 56.17  .29471 1.2745 163.1 22.7  890   3
2019 11 13 10  02 01 50.553   +21 30 53.12  .29479 1.2745 163.1 22.7  899   3
2019 11 13 11  02 01 53.070   +21 30 50.06  .29487 1.2746 163.1 22.7  907   3
2019 11 13 12  02 01 55.589   +21 30 46.99  .29495 1.2746 163.0 22.7  916   3
2019 11 13 13  02 01 58.111   +21 30 43.91  .29503 1.2747 163.0 22.7  925   3
2019 11 13 14  02 02 00.636   +21 30 40.82  .29511 1.2747 163.0 22.7  933   3
2019 11 13 15  02 02 03.163   +21 30 37.73  .29519 1.2747 163.0 22.7  942   3
2019 11 13 16  02 02 05.693   +21 30 34.62  .29527 1.2748 162.9 22.7  951   3
2019 11 13 17  02 02 08.225   +21 30 31.50  .29535 1.2748 162.9 22.7  960   3
2019 11 13 18  02 02 10.760   +21 30 28.37  .29543 1.2748 162.9 22.7  968   3
2019 11 13 19  02 02 13.297   +21 30 25.24  .29551 1.2749 162.8 22.7  977   3
2019 11 13 20  02 02 15.837   +21 30 22.09  .29559 1.2749 162.8 22.7  986   3
2019 11 13 21  02 02 18.380   +21 30 18.93  .29567 1.2750 162.8 22.7  995   3
2019 11 13 22  02 02 20.925   +21 30 15.77  .29575 1.2750 162.8 22.7 1004   3
2019 11 13 23  02 02 23.473   +21 30 12.59  .29583 1.2750 162.7 22.7 1013   3
2019 11 14 00  02 02 26.023   +21 30 09.41  .29592 1.2751 162.7 22.7 1022   3
2019 11 14 01  02 02 28.576   +21 30 06.22  .29600 1.2751 162.7 22.7 1032   3
2019 11 14 02  02 02 31.131   +21 30 03.01  .29608 1.2752 162.7 22.7 1041   3
2019 11 14 03  02 02 33.689   +21 29 59.80  .29616 1.2752 162.6 22.7 1050   3
2019 11 14 04  02 02 36.250   +21 29 56.58  .29624 1.2752 162.6 22.7 1059   3
2019 11 14 05  02 02 38.813   +21 29 53.35  .29633 1.2753 162.6 22.7 1068   3
2019 11 14 06  02 02 41.379   +21 29 50.11  .29641 1.2753 162.6 22.7 1078   3
2019 11 14 07  02 02 43.948   +21 29 46.87  .29649 1.2754 162.5 22.7 1087   3
2019 11 14 08  02 02 46.519   +21 29 43.61  .29658 1.2754 162.5 22.7 1097   3
2019 11 14 09  02 02 49.092   +21 29 40.34  .29666 1.2754 162.5 22.7 1106   3
2019 11 14 10  02 02 51.668   +21 29 37.07  .29674 1.2755 162.5 22.7 1116   3
2019 11 14 11  02 02 54.247   +21 29 33.79  .29683 1.2755 162.4 22.7 1125   3
2019 11 14 12  02 02 56.828   +21 29 30.50  .29691 1.2756 162.4 22.7 1135   3
2019 11 14 13  02 02 59.412   +21 29 27.20  .29700 1.2756 162.4 22.7 1144   3
2019 11 14 14  02 03 01.999   +21 29 23.89  .29708 1.2756 162.3 22.7 1154   3
2019 11 14 15  02 03 04.588   +21 29 20.57  .29716 1.2757 162.3 22.7 1164   3
2019 11 14 16  02 03 07.180   +21 29 17.24  .29725 1.2757 162.3 22.7 1174   3
2019 11 14 17  02 03 09.774   +21 29 13.91  .29733 1.2758 162.3 22.7 1183   3
2019 11 14 18  02 03 12.371   +21 29 10.57  .29742 1.2758 162.2 22.7 1193   3
2019 11 14 19  02 03 14.970   +21 29 07.22  .29751 1.2758 162.2 22.7 1203   3
2019 11 14 20  02 03 17.572   +21 29 03.86  .29759 1.2759 162.2 22.7 1213   3
2019 11 14 21  02 03 20.177   +21 29 00.49  .29768 1.2759 162.2 22.7 1223   3
2019 11 14 22  02 03 22.784   +21 28 57.11  .29776 1.2760 162.1 22.7 1233   3
2019 11 14 23  02 03 25.394   +21 28 53.73  .29785 1.2760 162.1 22.7 1243   3
2019 11 15 00  02 03 28.006   +21 28 50.34  .29794 1.2760 162.1 22.7 1253   3
2019 11 15 01  02 03 30.621   +21 28 46.94  .29802 1.2761 162.1 22.7 1263   3
2019 11 15 02  02 03 33.239   +21 28 43.53  .29811 1.2761 162.0 22.7 1274   3
2019 11 15 03  02 03 35.859   +21 28 40.11  .29820 1.2762 162.0 22.7 1284   3
2019 11 15 04  02 03 38.482   +21 28 36.69  .29828 1.2762 162.0 22.7 1294   3
2019 11 15 05  02 03 41.107   +21 28 33.26  .29837 1.2763 161.9 22.7 1304   3
2019 11 15 06  02 03 43.735   +21 28 29.82  .29846 1.2763 161.9 22.7 1315   3
2019 11 15 07  02 03 46.366   +21 28 26.37  .29855 1.2763 161.9 22.7 1325   3
2019 11 15 08  02 03 48.999   +21 28 22.91  .29863 1.2764 161.9 22.7 1336   3